Погода Миллерово

Погода Миллерово : погода сейчас, прогноз погоды и архив. Всё, что Вы хотите узнать о погоде Миллерово!

Хотите узнать прогноз погоды Миллерово? Тогда Вам сюда: Погода Миллерово

Поиск расширенной информации на нашем сайте:

Другие новости

Новости СМИ2

Главная страница сайта

Новости сайта

03.07.2017

Напоминаем, что на нашем специализированном сайте Метеоцентр.Азия вы можете получить высокодетализированные автоматические прогнозы погоды по пунктам России, СНГ и мира в авиационном формате (включающие направление и скорость ветра, видимость, явления погоды, количество и форму облачности, нижнюю и верхнюю границу облачности).


Погода Миллерово - сегодня

Время (UTC), дата Ветер
(°,м/с) 
Видим.   Явления Облачность Т
(°С)
Тd
(°С)
f(%) Тe
(°С)
Pmin
(гПа)
dP
(гПа)
Po
(мм)
O2
(г/м3)
Тmin Tmax R s Состояние
почвы
09 16.08.18 080 (В) 10 км    ясно 
+31 +9.6 27 +32  1016  -0.6  749  269           
12 16.08.18 070 (В) 10 км    3/3 1000 м 
[Cu hum]
+32.3 +7.3 21 +32  1014.8  -1.2  748  268           
15 16.08.18 020 (С) 10 км    ясно 
+30.5 +9.8 28 +31  1014.1  -0.7  748  269    +32.7       
18 16.08.18 050 (СВ) 10 км    ясно 
+22.8 +9 41 +23  1015.1  0.5  748  277           
21 16.08.18 040 (СВ) 10 км    ясно 
+21.1 +8.7 45 +21  1015.3  0.1  748  278           
00 17.08.18 100 (В) 10 км    ясно 
+20.3 +8.9 48 +20  1015.3  0.1  748  279           
03 17.08.18 030 (СВ) 10 км    ясно 
+17.3 +10.1 63 +19  1015.8  0.4  748  282  +16.5        сухая 
06 17.08.18 050 (СВ) 10 км    ясно 
+28.5 +10.2 32 +30  1015.3  0.1  748  271           
09 17.08.18 070 (В) 10 км    1/1 1000 м 
[Cu med, cong]
+32.2 +8.4 23 +32  1014.7  -0.4  748  268           
12 17.08.18 050 (СВ) 10 км    8/8 1000 м 
[Cu med, cong]
+32.3 +8.5 23 +32  1013.9  -0.8  747  268           
15 17.08.18 020 (С) 5{11}  10 км    3/3 1000 м 
[Cu med, cong]
+29.6 +11.6 33 +33  1013.9  -0.1  747  270    +33.8       
18 17.08.18 020 (С) 10 км    5/0 средняя 
[Ac cast]
+23.1 +12.1 50 +27  1015.4  1.1  748  276           
21 17.08.18 030 (СВ) 10 км    ясно 
+21.4 +14.7 66 +30  1015.8  0.3  748  277           
00 18.08.18 020 (С) 10 км    ясно 
+18.2 +15.1 82 +28  1016.1  0.1  748  280           
03 18.08.18 030 (СВ) 10 км    ясно 
+17.1 +15.1 88 +26  1016.8  0.7  749  281  +16.6        сухая 
06 18.08.18 030 (СВ) 7{10}  10 км    4/0 средняя 
[Ac cast]
+21.3 +14.2 64 +29  1017.6  750  277           
09 18.08.18 030 (СВ) 6-11{13}  10 км    ясно 
+24.8 +10.3 40 +26  1017.2  -0.2  750  275           
12 18.08.18 050 (СВ) 7-10{12}  10 км    1/1 1000 м 
[Cu hum]
+26.2 +8.6 33 +26  1016.9  -0.2  749  274           
15 18.08.18 040 (СВ) 5{11}  10 км    ясно 
+24.4 +5.2 29 +24  1017.3  0.2  750  276    +26.7       
18 18.08.18 050 (СВ) 10 км    ясно 
+16.2 +5.8 50 +17  1019.3  1.5  751  285           
21 18.08.18 050 (СВ) 10 км    ясно 
+15.2 +5.4 52 +15  1020  0.6  751  286           
00 19.08.18 070 (В) 10 км    ясно 
+12.7 +5.1 60 +13  1020.8  0.6  752  289           
03 19.08.18 030 (СВ) 10 км    ясно 
+11.3 +6 70 +11  1021.6  0.8  752  290  +10.6        сухая 
06 19.08.18 080 (В) 10 км    ясно 
+19.5 +6.5 43 +20  1021.9  0.8  753  282           
09 19.08.18 060 (СВ) 5{11}  10 км    ясно 
+23.8 +4.9 29 +24  1021  -0.7  752  278           
Время (UTC), дата Ветер
(°,м/с) 
Видим.   Явления Облачность Т
(°С)
Тd
(°С)
f(%) Тe
(°С)
Pmin
(гПа)
dP
(гПа)
Po
(мм)
O2
(г/м3)
Тmin Tmax R s Состояние
почвы

Для получения пояснительной информации подведите курсор к названию столбца.

ПОГОДА Миллерово - архив

Всё, что Вы хотите узнать о погоде Миллерово - удобно и подробно!

Выберите нужную дату (начиная с 1 января 2015* года) и нажмите кнопку "Найти".
Будут отображены архивные сводки погоды по пункту Миллерово, начиная с указанной даты.


Отображать данные в формате CSV (для использования в таблицах Excel)


Внимание! Наш архив погоды предназначен исключительно для личного некоммерческого использования в познавательных целях. Если Вам необходимы официальные справки о состоянии погоды (для производственных, юридических, коммерческих и т.п. целей), обращайтесь в органы Росгидромета.

*Примечание: данная дата относится к архиву по метеостанциям СССР (Россия, СНГ, Балтия).
Архив по метеостанциям Зарубежной Европы и Азии (кроме Китая) хранится 10 дней, по другим регионам земного шара (Китай, Африка, Америка, Австралия, Океания) - 1 день.

Миллерово - район местоположения метеостанции


Название, широта, долгота, высота метеостанции:
Миллерово 48.9°ш. 40.4°д. 155 м над ур. моря [Российская Федерация]

Дополнительная информация

В oтличие oт бoльшинства пoгoдных сайтoв мы публикуем пoдрoбную метеoинфoрмацию в детальнoм прoфессиoнальнoм фoрмате.

Характеристики температуры и влажнoсти вoздуха измеряются на высoте 2 м в тени вдали oт зданий и деревьев.
Скoрoсть ветра измеряется на высoте 10 м (на урoвне рoста челoвека скoрoсть ветра ниже в 1.5-2 раза). Если метеoстанция нахoдится в гoрoде или в лесу, тo скoрoсть ветра занижена на 2-4 м/с пo сравнению с oткрытым местoм. Скoрoсть ветра над акватoриями крупных рек и oзёр, а также на вершинах хoлмoв на 2-5 м/с выше, чем в oбычных услoвиях.
Атмoсфернoе давление в разных тoчках местнoсти мoжет значительнo oтличаться oт давления на метеoстанции, в зависимoсти oт услoвий рельефа (при пoдъёме на 10 м давление пoнижается примернo на 1 мм рт.ст.).